Location: Lawrence Hall of Science
(37.8785°N, 122.2415°W)
Time: 06:03:18
(UTC-07:00)

Cosmos 2151 - Visible Passes

Search period start: 23 July 2016 00:00
Search period end: 02 August 2016 00:00
Orbit: 583 x 602 km, 82.5° (Epoch: 22 July)

Date Brightness Start Highest point End Pass type
(mag) Time Alt. Az. Time Alt. Az. Time Alt. Az.
23 Jul 6.6 04:31:32 10° ENE 04:31:57 10° ENE 04:32:21 10° ENE visible
24 Jul 6.0 04:38:34 10° NE 04:41:13 16° ENE 04:43:51 10° ESE visible
25 Jul 5.5 04:46:54 10° NNE 04:50:25 24° ENE 04:53:54 10° SE visible
26 Jul 4.7 04:55:34 10° N 04:59:35 36° ENE 05:03:33 10° SE visible
27 Jul 3.7 05:04:26 10° N 05:08:42 58° E 05:12:55 10° SSE visible
28 Jul 3.0 05:13:26 10° N 05:17:46 88° W 05:22:04 10° S visible
29 Jul 6.1 03:47:50 10° NE 03:49:07 11° ENE 03:50:24 10° E visible
29 Jul 3.1 05:22:34 10° NNW 05:26:48 55° W 05:30:58 10° S visible
30 Jul 5.8 03:55:31 10° NNE 03:58:22 17° ENE 04:01:13 10° ESE visible
30 Jul 3.7 05:31:52 10° NNW 05:35:47 34° W 05:39:39 10° SSW visible
31 Jul 5.1 04:03:57 10° NNE 04:07:34 26° ENE 04:11:09 10° SE visible
31 Jul 4.3 05:41:23 10° NW 05:44:43 22° W 05:48:02 10° SW visible
01 Aug 4.3 04:12:38 10° N 04:16:43 39° E 04:20:45 10° SSE visible
